URMM Weather Reports


time (UTC)temp
C
wind
direction
speed
KPH
gust
KPH
rain 1hr
cm
rain 24hr
cm
rain mn
cm
humidity
%
barometer
mb
20260507090043 17 290 32.2 0.0 0.00 0.00 0.00 51 1019.0
20260507083044 17 300 29.0 0.0 0.00 0.00 0.00 59 1019.0
20260507080045 16 300 29.0 0.0 0.00 0.00 0.00 63 1019.0
20260507073043 17 310 29.0 0.0 0.00 0.00 0.00 63 1019.0
20260507070045 17 300 25.7 0.0 0.00 0.00 0.00 59 1019.0
20260507060043 15 300 25.7 0.0 0.00 0.00 0.00 67 1019.0
20260507053043 15 310 20.9 0.0 0.00 0.00 0.00 67 1019.0
20260507043045 11 300 14.5 0.0 0.00 0.00 0.00 81 1019.0
20260507040044 10 310 14.5 0.0 0.00 0.00 0.00 81 1019.0
20260507033044 10 310 14.5 0.0 0.00 0.00 0.00 81 1018.0
20260507030044 10 300 11.3 0.0 0.00 0.00 0.00 87 1018.0
20260507023045 10 300 14.5 0.0 0.00 0.00 0.00 87 1018.0
20260507020043 10 300 14.5 0.0 0.00 0.00 0.00 87 1017.0
20260507013044 10 290 14.5 0.0 0.00 0.00 0.00 81 1017.0
20260507010043 10 290 14.5 0.0 0.00 0.00 0.00 81 1017.0
20260507003045 10 300 14.5 0.0 0.00 0.00 0.00 87 1017.0
20260506233045 12 250 14.5 0.0 0.00 0.00 0.00 71 1017.0
20260506230044 12 250 14.5 0.0 0.00 0.00 0.00 71 1017.0
20260506223044 12 250 17.7 0.0 0.00 0.00 0.00 66 1017.0
20260506220046 12 260 17.7 0.0 0.00 0.00 0.00 66 1017.0
20260506213045 13 250 25.7 0.0 0.00 0.00 0.00 62 1017.0
20260506210045 12 250 20.9 0.0 0.00 0.00 0.00 66 1017.0
20260506203046 12 250 20.9 0.0 0.00 0.00 0.00 66 1017.0
20260506200047 11 250 25.7 0.0 0.00 0.00 0.00 76 1017.0
20260506193045 12 250 20.9 0.0 0.00 0.00 0.00 66 1017.0
20260506190045 11 250 17.7 0.0 0.00 0.00 0.00 71 1017.0
20260506183045 11 270 14.5 0.0 0.00 0.00 0.00 71 1017.0
20260506173045 13 270 14.5 0.0 0.00 0.00 0.00 67 1016.0
20260506170045 13 270 17.7 0.0 0.00 0.00 0.00 67 1016.0
20260506163046 15 290 14.5 0.0 0.00 0.00 0.00 62 1016.0
20260506153046 15 300 17.7 0.0 0.00 0.00 0.00 63 1015.0
20260506150045 16 300 17.7 0.0 0.00 0.00 0.00 55 1015.0
20260506143045 17 310 14.5 0.0 0.00 0.00 0.00 45 1015.0
20260506140046 17 330 17.7 0.0 0.00 0.00 0.00 42 1014.0
20260506133046 18 330 14.5 0.0 0.00 0.00 0.00 45 1014.0
20260506130045 18 300 17.7 0.0 0.00 0.00 0.00 39 1014.0
20260506123044 18 300 17.7 0.0 0.00 0.00 0.00 42 1014.0
20260506120045 17 310 17.7 0.0 0.00 0.00 0.00 45 1014.0
20260506113045 17 330 17.7 0.0 0.00 0.00 0.00 42 1014.0
20260506110045 17 290 17.7 0.0 0.00 0.00 0.00 51 1015.0
20260506103045 16 310 14.5 0.0 0.00 0.00 0.00 51 1015.0
20260506100047 15 300 17.7 0.0 0.00 0.00 0.00 51 1015.0
20260506093046 16 290 20.9 0.0 0.00 0.00 0.00 55 1015.0